Flag for U.S.A. Weather past 2 weeks in Colorado Springs, Colorado, U.S.A.

Now
62 °F

Broken clouds.


Feels Like: 62 °F
Forecast: 40 / 64 °F
Wind: 10 mph from Southeast

Location: City Of Colorado Springs Municipal Airport

Current Time: Oct 1, 2014 at 1:15:01 PM

Latest Report: Oct 1, 2014 at 11:54 AM


Visibility: 10 mi

Pressure: 29.77 "Hg

Humidity: 32%

Dew point: 32 °F

Location of Colorado SpringsLocation

Historic Weather in Colorado Springs — Graph

°F

Colorado Springs temperature yesterday

Maximum temperature yesterday: 69 °F (at 1:54 PM)
Minimum temperature yesterday: 43 °F (at 5:54 AM)
Average temperature yesterday: 56 °F

Past Weeks' High & Low Weather Summary

 TemperatureHumidityPressure
High88 °F (Sep 16, 2:54 PM)90% (Sep 21, 5:54 AM)30.24 "Hg (Sep 21, 5:54 AM)
Low43 °F (Sep 30, 5:54 AM)12% (Sep 16, 2:54 PM)29.66 "Hg (Sep 29, 3:54 PM)
Average66 °F45%29.92 "Hg
* Reported Sep 16 11:54 AM — Oct 1 11:54 AM, Colorado Springs, Weather by CustomWeather, © 2014

Note: Actual official high and low records may vary slightly from our data, if they occured in-between our weather recording intervals... More about our weather records

Advertising

Colorado Springs weather history for previous 24 hours

 ConditionsComfort  
Time TempWeatherWind HumidityBarometerVisibility
11:54 AM
Oct 1
62 °FBroken clouds.10 mph32%29.77 "Hg10 mi
10:54 AM60 °FBroken clouds.14 mph39%29.79 "Hg10 mi
9:54 AM58 °FBroken clouds.13 mph41%29.78 "Hg10 mi
8:54 AM56 °FBroken clouds.No wind44%29.80 "Hg10 mi
7:54 AM51 °FPartly sunny.No wind59%29.81 "Hg10 mi
6:54 AM49 °FPassing clouds.3 mph55%29.80 "Hg10 mi
5:54 AM49 °FPassing clouds.No wind55%29.77 "Hg10 mi
4:54 AM48 °FPassing clouds.8 mph59%29.76 "Hg10 mi
3:54 AM51 °FPassing clouds.7 mph46%29.74 "Hg10 mi
2:54 AM50 °FClear.3 mph50%29.74 "Hg10 mi
1:54 AM51 °FClear.5 mph48%29.74 "Hg10 mi
12:54 AM54 °FClear.5 mph41%29.74 "Hg10 mi
11:54 PM
Sep 30
51 °FClear.7 mph54%29.76 "Hg10 mi
10:54 PM54 °FPassing clouds.9 mph43%29.76 "Hg10 mi
9:54 PM59 °FPassing clouds.17 mph32%29.74 "Hg10 mi
8:54 PM58 °FPassing clouds.8 mph38%29.78 "Hg10 mi
7:54 PM60 °FPassing clouds.3 mph33%29.77 "Hg10 mi
6:54 PM62 °FPartly sunny.9 mph29%29.75 "Hg10 mi
5:54 PM65 °FPartly sunny.5 mph32%29.73 "Hg10 mi
4:54 PM67 °FPartly sunny.No wind23%29.70 "Hg10 mi
3:54 PM67 °FPartly sunny.6 mph23%29.69 "Hg10 mi
2:54 PM68 °FScattered clouds.6 mph21%29.68 "Hg10 mi
1:54 PM69 °FScattered clouds.6 mph21%29.70 "Hg10 mi
Weather by CustomWeather, © 2014

See weather overviewHow to use our weather pages